When you browse on this site, cookies collect data to enhance your experience and personalize the content and advertising you see.
Visit our Privacy Policy to learn more. By continuing to use the site, you agree to this use of cookies and data.
  • In United Kingdom
  • List of Countries
  • For 7 days
  • Water Temperature
  • Weather Map
  • Weather Widgets
  • user-avatar
    Login

    Hourly Weather Folkern

    Today, 5 April, Sunday

    Time Temperature Precipitation Wind Pressure Humidity
    00:00 +4°C° 0 mm 14 mps 753 mmHg 80%
    01:00 +4°C° 0 mm 14 mps 752 mmHg 81%
    02:00 +4°C° 0 mm 15 mps 752 mmHg 82%
    03:00 +4°C° 0 mm 15 mps 751 mmHg 82%
    04:00 +5°C° 0 mm 15 mps 751 mmHg 81%
    05:00 +5°C° 0 mm 16 mps 751 mmHg 79%
    06:00 +5°C° 0 mm 16 mps 751 mmHg 78%
    07:00 +6°C° 0 mm 16 mps 750 mmHg 75%
    08:00 +6°C° 0 mm 16 mps 750 mmHg 73%
    09:00 +7°C° 0 mm 17 mps 750 mmHg 70%
    10:00 +7°C° 0 mm 16 mps 749 mmHg 67%
    11:00 +9°C° 0 mm 16 mps 749 mmHg 65%
    12:00 +9°C° 0 mm 15 mps 748 mmHg 62%
    13:00 +10°C° 0.1 mm 16 mps 747 mmHg 60%
    14:00 +11°C° 0.1 mm 17 mps 746 mmHg 57%
    15:00 +11°C° 0.1 mm 17 mps 745 mmHg 55%
    16:00 +11°C° 0.1 mm 18 mps 744 mmHg 61%
    17:00 +11°C° 0.1 mm 18 mps 743 mmHg 66%
    18:00 +10°C° 0.1 mm 18 mps 742 mmHg 72%
    19:00 +10°C° 0 mm 19 mps 742 mmHg 75%
    20:00 +10°C° 0 mm 19 mps 742 mmHg 78%
    21:00 +10°C° 0 mm 19 mps 741 mmHg 81%
    22:00 +10°C° 1.1 mm 17 mps 741 mmHg 82%
    23:00 +10°C° 1.1 mm 16 mps 741 mmHg 83%

    Tomorrow, 6 April, Monday

    Time Temperature Precipitation Wind Pressure Humidity
    00:00 +10°C° 1.1 mm 15 mps 741 mmHg 84%
    01:00 +9°C° 0.6 mm 15 mps 741 mmHg 84%
    02:00 +8°C° 0.6 mm 15 mps 741 mmHg 85%
    03:00 +6°C° 0.6 mm 15 mps 742 mmHg 86%
    04:00 +5°C° 0.1 mm 14 mps 743 mmHg 86%
    05:00 +5°C° 0.1 mm 14 mps 744 mmHg 86%
    06:00 +4°C° 0.1 mm 14 mps 745 mmHg 85%
    07:00 +5°C° 0.2 mm 14 mps 746 mmHg 83%
    08:00 +5°C° 0.2 mm 13 mps 748 mmHg 81%
    09:00 +5°C° 0.2 mm 13 mps 749 mmHg 78%
    10:00 +5°C° 0.1 mm 12 mps 751 mmHg 74%
    11:00 +5°C° 0.1 mm 12 mps 753 mmHg 70%
    12:00 +6°C° 0.1 mm 11 mps 754 mmHg 66%
    13:00 +6°C° 0.1 mm 11 mps 755 mmHg 66%
    14:00 +6°C° 0.1 mm 11 mps 757 mmHg 66%
    15:00 +6°C° 0.1 mm 10 mps 758 mmHg 67%
    16:00 +6°C° 0.1 mm 10 mps 759 mmHg 68%
    17:00 +6°C° 0.1 mm 10 mps 760 mmHg 69%
    18:00 +5°C° 0.1 mm 9 mps 761 mmHg 70%
    19:00 +5°C° 0 mm 9 mps 762 mmHg 72%
    20:00 +5°C° 0 mm 9 mps 762 mmHg 74%
    21:00 +5°C° 0 mm 8 mps 763 mmHg 76%
    22:00 +5°C° 0 mm 9 mps 764 mmHg 78%
    23:00 +5°C° 0 mm 9 mps 764 mmHg 80%

    Day after tomorrow, 7 April, Tuesday

    Time Temperature Precipitation Wind Pressure Humidity
    00:00 +5°C° 0 mm 10 mps 765 mmHg 82%
    01:00 +5°C° 0 mm 10 mps 765 mmHg 82%
    02:00 +4°C° 0 mm 11 mps 765 mmHg 81%
    03:00 +4°C° 0 mm 11 mps 765 mmHg 81%
    04:00 +4°C° 0 mm 11 mps 765 mmHg 82%
    05:00 +4°C° 0 mm 12 mps 766 mmHg 83%
    06:00 +4°C° 0 mm 12 mps 766 mmHg 83%
    07:00 +4°C° 0 mm 12 mps 766 mmHg 81%
    08:00 +4°C° 0 mm 12 mps 766 mmHg 79%
    09:00 +5°C° 0 mm 13 mps 766 mmHg 77%
    10:00 +5°C° 0 mm 13 mps 766 mmHg 76%
    11:00 +5°C° 0 mm 14 mps 766 mmHg 74%
    12:00 +6°C° 0 mm 14 mps 766 mmHg 72%
    13:00 +6°C° 0 mm 14 mps 765 mmHg 71%
    14:00 +6°C° 0 mm 14 mps 765 mmHg 70%
    15:00 +6°C° 0 mm 14 mps 765 mmHg 69%
    16:00 +6°C° 0 mm 14 mps 764 mmHg 70%
    17:00 +6°C° 0 mm 14 mps 764 mmHg 70%
    18:00 +7°C° 0 mm 13 mps 764 mmHg 71%
    19:00 +6°C° 0.2 mm 14 mps 764 mmHg 73%
    20:00 +6°C° 0.2 mm 14 mps 764 mmHg 74%
    21:00 +6°C° 0.2 mm 15 mps 764 mmHg 76%
    22:00 +5°C° 0.4 mm 14 mps 764 mmHg 80%
    23:00 +5°C° 0.4 mm 14 mps 764 mmHg 84%

    8 April, Wednesday

    Time Temperature Precipitation Wind Pressure Humidity
    00:00 +5°C° 0.4 mm 14 mps 764 mmHg 88%
    01:00 +5°C° 0.6 mm 12 mps 765 mmHg 91%
    02:00 +6°C° 0.6 mm 9 mps 765 mmHg 93%
    03:00 +6°C° 0.6 mm 7 mps 766 mmHg 95%
    04:00 +5°C° 0.2 mm 6 mps 766 mmHg 94%
    05:00 +6°C° 0.2 mm 5 mps 766 mmHg 93%
    06:00 +5°C° 0.2 mm 5 mps 766 mmHg 92%
    07:00 +5°C° 0 mm 5 mps 767 mmHg 86%
    08:00 +6°C° 0 mm 5 mps 767 mmHg 79%
    09:00 +6°C° 0 mm 4 mps 767 mmHg 73%
    10:00 +7°C° 0 mm 4 mps 767 mmHg 69%
    11:00 +7°C° 0 mm 4 mps 768 mmHg 66%
    12:00 +7°C° 0 mm 4 mps 768 mmHg 62%
    13:00 +7°C° 0 mm 4 mps 768 mmHg 62%
    14:00 +7°C° 0 mm 5 mps 768 mmHg 62%
    15:00 +6°C° 0 mm 5 mps 769 mmHg 62%
    16:00 +6°C° 0 mm 5 mps 769 mmHg 63%
    17:00 +6°C° 0 mm 5 mps 769 mmHg 64%
    18:00 +6°C° 0 mm 5 mps 769 mmHg 65%
    19:00 +5°C° 0 mm 5 mps 769 mmHg 68%
    20:00 +5°C° 0 mm 5 mps 769 mmHg 71%
    21:00 +3°C° 0 mm 5 mps 770 mmHg 74%
    22:00 +4°C° 0 mm 4 mps 770 mmHg 75%
    23:00 +4°C° 0 mm 3 mps 770 mmHg 76%

    9 April, Thursday

    Time Temperature Precipitation Wind Pressure Humidity
    00:00 +3°C° 0 mm 3 mps 770 mmHg 77%
    01:00 +4°C° 0 mm 2 mps 770 mmHg 77%
    02:00 +4°C° 0 mm 2 mps 770 mmHg 77%
    03:00 +4°C° 0 mm 2 mps 770 mmHg 77%
    04:00 +3°C° 0 mm 2 mps 770 mmHg 78%
    05:00 +2°C° 0 mm 3 mps 770 mmHg 79%
    06:00 +2°C° 0 mm 3 mps 770 mmHg 80%
    07:00 +3°C° 0 mm 4 mps 770 mmHg 77%
    08:00 +5°C° 0 mm 5 mps 769 mmHg 74%
    09:00 +6°C° 0 mm 5 mps 769 mmHg 71%
    10:00 +6°C° 0 mm 5 mps 769 mmHg 65%
    11:00 +7°C° 0 mm 6 mps 769 mmHg 60%
    12:00 +8°C° 0 mm 6 mps 769 mmHg 55%
    13:00 +9°C° 0 mm 5 mps 768 mmHg 54%
    14:00 +9°C° 0 mm 5 mps 768 mmHg 54%
    15:00 +10°C° 0 mm 4 mps 767 mmHg 53%
    16:00 +9°C° 0 mm 5 mps 767 mmHg 57%
    17:00 +9°C° 0 mm 5 mps 767 mmHg 61%
    18:00 +8°C° 0 mm 5 mps 766 mmHg 65%
    19:00 +8°C° 0 mm 5 mps 766 mmHg 66%
    20:00 +7°C° 0 mm 6 mps 765 mmHg 67%
    21:00 +7°C° 0 mm 6 mps 765 mmHg 67%
    22:00 +7°C° 0.4 mm 6 mps 765 mmHg 70%
    23:00 +6°C° 0.4 mm 7 mps 764 mmHg 72%

    10 April, Friday

    Time Temperature Precipitation Wind Pressure Humidity
    00:00 +6°C° 0.4 mm 7 mps 764 mmHg 75%
    01:00 +6°C° 0.7 mm 8 mps 763 mmHg 80%
    02:00 +6°C° 0.7 mm 9 mps 763 mmHg 85%
    03:00 +6°C° 0.7 mm 9 mps 762 mmHg 91%
    04:00 +6°C° 0.5 mm 10 mps 762 mmHg 91%
    05:00 +6°C° 0.5 mm 10 mps 761 mmHg 91%
    06:00 +7°C° 0.5 mm 10 mps 761 mmHg 92%
    07:00 +7°C° 1 mm 10 mps 761 mmHg 92%
    08:00 +7°C° 1 mm 9 mps 761 mmHg 92%
    09:00 +7°C° 1 mm 9 mps 760 mmHg 92%
    10:00 +7°C° 0.9 mm 9 mps 760 mmHg 93%
    11:00 +7°C° 0.9 mm 8 mps 760 mmHg 93%
    12:00 +7°C° 0.9 mm 8 mps 760 mmHg 94%
    13:00 +7°C° 0.2 mm 8 mps 759 mmHg 94%
    14:00 +8°C° 0.2 mm 7 mps 759 mmHg 95%
    15:00 +8°C° 0.2 mm 7 mps 759 mmHg 95%
    16:00 +8°C° 0.2 mm 7 mps 759 mmHg 96%
    17:00 +8°C° 0.2 mm 7 mps 759 mmHg 97%
    18:00 +8°C° 0.2 mm 6 mps 759 mmHg 98%
    19:00 +8°C° 0.1 mm 7 mps 760 mmHg 97%
    20:00 +7°C° 0.1 mm 8 mps 760 mmHg 97%
    21:00 +7°C° 0.1 mm 9 mps 760 mmHg 97%
    22:00 +7°C° 0 mm 10 mps 761 mmHg 96%
    23:00 +7°C° 0 mm 10 mps 761 mmHg 96%
    Show more